Regional Weather Roundup
Issued by NWS

Home | Current Version | Previous Version | Graphics & Text | Print | Product List | Glossary Off
Versions: 1 2 3 4 5 6 7 8 9 10 11 12 13 14 15 16 17 18 19 20 21 22 23 24 25 26 27 28 29 30 31 32 33 34 35 36 37 38 39 40 41 42 43 44 45 46 47 48 49 50

000
ASUS43 KOAX 190610
RWRNE

WEATHER ROUNDUP FOR NEBRASKA
NATIONAL WEATHER SERVICE OMAHA NE
1200 AM CST THU JAN 19 2017

NOTES: SATELLITE DATA IS BEING USED TO AUGMENT CLOUD COVER ABOVE
       12000 FEET.
       "FAIR" INDICATES FEW OR NO CLOUDS BELOW 12,000 FEET WITH NO
       SIGNIFICANT WEATHER AND/OR OBSTRUCTIONS TO VISIBILITY.

  * THESE STATIONS DO NOT REPORT WEATHER SUCH AS RAIN...SNOW OR FOG.

NEZ001>004-019>022-054>056-190700-
NEBRASKA PANHANDLE

CITY           SKY/WX    TMP DP  RH WIND       PRES   REMARKS
SCOTTSBLUFF    CLOUDY    28  20  71 NW3       29.66R
6HR MIN TEMP:  27; 6HR MAX TEMP:  43;

ALLIANCE       CLOUDY    21  18  88 S8        29.63F WCI  11
6HR MIN TEMP:  20; 6HR MAX TEMP:  40;

CHADRON        CLOUDY    22  18  85 SW8       29.61R WCI  12
6HR MIN TEMP:  20; 6HR MAX TEMP:  35;

KIMBALL        CLOUDY    27  25  92 W6        29.68S WCI  21
SIDNEY         CLOUDY    26  21  81 W10       29.66F WCI  16
6HR MIN TEMP:  25; 6HR MAX TEMP:  35;

$$

NEZ057>060-069>072-079>082-190700-
SOUTHWEST NEBRASKA

CITY           SKY/WX    TMP DP  RH WIND       PRES   REMARKS
NORTH PLATTE   CLEAR     36  34  92 S7        29.71F WCI  30
6HR MIN TEMP:  27; 6HR MAX TEMP:  37;

IMPERIAL       CLOUDY    28  25  88 SE6       29.69F FOG     WCI  22
6HR MIN TEMP:  26; 6HR MAX TEMP:  36;

LEXINGTON      PTCLDY    36  34  94 SE9       29.74F WCI  29
MCCOOK         FOG       29  28  96 E3        29.72F VSB 1/4
6HR MIN TEMP:  29; 6HR MAX TEMP:  42;

OGALLALA       CLOUDY    27  24  90 CALM      29.69F
$$

NEZ005>010-023>029-035>040-094-190700-
NORTH CENTRAL NEBRASKA

CITY           SKY/WX    TMP DP  RH WIND       PRES   REMARKS
VALENTINE      CLOUDY    33  26  75 SW8       29.65S WCI  26
6HR MIN TEMP:  30; 6HR MAX TEMP:  46;

AINSWORTH      CLEAR     34  32  93 S15       29.67F WCI  24
BROKEN BOW     CLEAR     37  35  92 S8        29.73F WCI  31
6HR MIN TEMP:  34; 6HR MAX TEMP:  38;

O`NEILL        CLEAR     38  36  94 S9        29.73F WCI  31
ORD            CLEAR     32  31  96 E3        29.75F FOG
6HR MIN TEMP:  31; 6HR MAX TEMP:  38;

THEDFORD       CLEAR     33  32  96 S6        29.69S WCI  28
$$

NEZ041-046>049-061>064-073>077-083>087-190700-
SOUTH CENTRAL NEBRASKA

CITY           SKY/WX    TMP DP  RH WIND       PRES   REMARKS
GRAND ISLAND   CLEAR     37  35  92 S13       29.79F WCI  29
6HR MIN TEMP:  36; 6HR MAX TEMP:  42;

AURORA         CLEAR     38  35  87 S13       29.80F WCI  30
HASTINGS       CLEAR     37  33  85 S9        29.80F WCI  30
6HR MIN TEMP:  37; 6HR MAX TEMP:  43;

HEBRON         MOCLDY    40  36  84 S8        29.83F WCI  35
HOLDREGE       CLOUDY    39  37  94 S9        29.76F WCI  32
KEARNEY *      CLOUDY    37  34  87 S8        29.78F WCI  31
YORK           PTCLDY    36  34  93 S8        29.81F WCI  29
$$

NEZ011>018-030>034-042>045-190700-
NORTHEAST NEBRASKA

CITY           SKY/WX    TMP DP  RH WIND       PRES   REMARKS
NORFOLK        CLEAR     38  33  82 S14       29.78F WCI  30
6HR MIN TEMP:  34; 6HR MAX TEMP:  42;

ALBION         CLEAR     36  33  89 SE7       29.79S WCI  30
BLAIR          CLEAR     37  34  88 S8        29.85F WCI  31
FREMONT        CLEAR     36  33  89 SE7       29.85F WCI  30
TEKAMAH        CLEAR     34  31  88 SE7       29.85F WCI  28
6HR MIN TEMP:  34; 6HR MAX TEMP:  40;

WAYNE          CLEAR     36  34  92 S9        29.80F WCI  29
$$

NEZ050>053-065>068-078-088>093-190700-
SOUTHEAST NEBRASKA

CITY           SKY/WX    TMP DP  RH WIND       PRES   REMARKS
LINCOLN        CLEAR     37  32  82 S13       29.86F WCI  29
6HR MIN TEMP:  35; 6HR MAX TEMP:  42;

OMAHA EPPLEY   CLEAR     37  32  82 SE13      29.87F WCI  29
6HR MIN TEMP:  37; 6HR MAX TEMP:  44;

BEATRICE       CLEAR     38  33  81 SE8       29.87F WCI  32
FALLS CITY     CLOUDY    37  35  92 SE5       29.91F WCI  33
6HR MIN TEMP:  34; 6HR MAX TEMP:  40;

NEBRASKA CITY  PTCLDY    34  34 100 S7        29.89F WCI  28
PLATTSMOUTH    PTCLDY    37  32  82 SE13G18   29.88S WCI  29
$$

NEZ044-045-051>053-067-190700-
OMAHA AREA

CITY           SKY/WX    TMP DP  RH WIND       PRES   REMARKS
OMAHA EPPLEY   CLEAR     37  32  82 SE13      29.87F WCI  29
6HR MIN TEMP:  37; 6HR MAX TEMP:  44;

BLAIR          CLEAR     37  34  88 S8        29.85F WCI  31
FREMONT        CLEAR     36  33  89 SE7       29.85F WCI  30
MILLARD        CLEAR     35  33  90 SE6       29.87F WCI  30
OFFUTT AFB     CLEAR     35  35 100 SE9       29.87F WCI  28
PLATTSMOUTH    PTCLDY    37  32  82 SE13G18   29.88S WCI  29
WAHOO          FAIR      35  32  88 S9        29.85F WCI  28
$$



USA.gov is the U.S. government's official web portal to all federal, state and local government web resources and services.